Theta_e
317 318 318 319 319 319 318 317 317 316 317 316 315 314 315 315 311 301 294 299 305 311 308 296 293 292 292 288 288 284 280 276 279 279 281 282 282 284 285 284 284 285 283 286 289
316 317 318 318 319 319 319 318 317 316 316 316 315 314 314 314 300 297 305 309 309 309 296 293 290 292 288 287 287 283 278 280 281 280 280 282 281 283 282 282 283 283 286 287 288
316 316 317 318 318 319 319 318 317 316 316 316 315 314 313 308 294 295 307 308 308 305 297 295 293 292 286 286 285 282 280 282 283 283 283 283 281 283 281 281 284 284 285 286 286
316 316 317 317 318 319 319 317 316 315 314 314 314 313 313 300 286 296 307 308 309 300 296 294 291 287 285 284 287 280 284 284 286 287 284 282 282 282 282 283 285 286 286 286 285
317 317 317 317 318 319 319 317 314 313 312 313 313 311 302 290 291 299 307 303 299 297 293 291 288 287 283 285 285 282 283 285 285 285 284 284 283 283 283 285 285 285 287 286 285
318 317 317 318 318 319 319 317 314 311 312 312 312 310 295 286 296 298 298 298 297 294 292 291 288 288 285 284 283 284 285 285 286 285 285 283 281 282 285 283 284 285 284 285 285
319 318 318 318 318 318 318 317 314 311 312 312 311 304 294 289 294 297 297 295 296 295 291 292 292 288 286 283 287 285 282 283 284 284 283 284 281 281 285 284 283 282 283 284 285
320 318 318 317 316 318 318 317 312 310 311 311 310 297 287 295 293 296 296 294 296 296 294 294 293 289 286 287 285 281 280 277 282 283 283 282 277 285 285 283 283 282 281 282 283
315 315 315 315 315 317 318 313 309 309 309 309 297 291 286 300 291 294 295 293 293 294 294 296 292 286 285 280 278 279 275 277 280 285 282 281 278 285 284 282 282 282 281 281 281
312 312 313 313 313 315 315 308 308 305 303 301 294 288 291 288 291 293 294 294 291 290 290 289 285 281 280 278 272 275 276 278 278 280 280 279 278 284 286 282 282 281 280 280 280
311 311 312 313 313 316 301 294 294 292 292 289 288 286 288 291 293 291 293 291 290 287 280 284 279 277 279 280 280 279 278 276 279 281 279 279 278 282 285 281 280 280 279 279 279
308 309 310 312 315 309 295 290 290 290 289 292 289 288 290 290 285 289 292 284 284 280 282 280 277 282 284 282 281 280 278 277 280 280 279 277 277 282 283 280 279 279 279 279 277
307 308 309 311 313 298 292 291 296 294 287 290 287 287 287 288 284 285 289 286 282 280 280 278 281 285 283 281 280 278 278 277 277 279 277 275 274 277 281 279 279 279 277 278 277
309 309 309 311 303 294 291 296 298 295 281 284 283 286 288 287 282 289 289 286 283 280 280 279 283 282 280 280 280 275 280 279 278 273 270 277 267 277 278 278 279 280 278 276 274
309 309 309 310 301 295 294 297 297 293 270 283 282 289 287 283 283 284 288 285 280 280 280 279 280 280 278 280 281 276 280 278 277 271 267 274 270 274 275 276 277 278 278 275 274
309 308 308 303 295 294 296 294 293 279 270 280 282 282 283 282 282 284 285 286 285 281 281 280 283 281 280 281 281 281 279 279 275 272 264 272 272 273 273 273 275 276 277 277 275
307 306 303 301 294 295 294 292 278 272 282 280 280 282 281 280 281 282 282 280 277 274 276 280 279 281 283 279 281 280 278 274 267 262 267 273 270 275 274 273 272 272 275 272 274
306 304 300 298 299 295 294 285 271 270 275 285 283 284 280 281 281 282 279 278 283 281 276 273 272 277 282 279 279 279 278 273 264 263 270 273 268 275 273 268 265 268 268 273 274
307 301 298 297 298 295 288 271 271 275 284 282 283 277 278 282 279 279 280 279 279 281 274 271 272 280 281 282 280 278 275 276 265 265 269 270 272 275 276 271 268 270 275 274 273
301 298 296 297 296 296 284 277 275 287 287 286 275 282 279 281 277 278 277 280 279 282 282 277 270 279 280 281 280 279 279 273 272 268 264 267 265 268 269 270 271 270 273 272 272
300 287 294 298 298 292 274 272 282 288 288 284 282 278 282 280 281 278 277 281 282 281 281 279 275 276 279 276 276 276 275 275 273 268 262 261 267 268 268 267 270 273 274 270 270
297 282 292 298 287 283 276 281 288 285 286 286 284 283 281 276 277 278 277 280 285 284 277 280 278 273 276 278 279 278 275 275 269 263 258 261 268 265 265 262 262 271 274 270 269
291 287 293 296 281 278 284 284 285 283 284 284 282 281 277 277 277 278 280 282 284 281 279 280 278 272 273 276 277 275 275 272 267 266 263 264 268 264 260 266 270 270 270 269 270
290 281 287 289 287 282 282 282 280 287 285 286 285 284 280 278 277 278 280 282 283 283 287 284 277 275 273 275 275 273 272 272 271 261 261 264 268 278 275 270 276 270 267 263 263
291 275 276 279 283 284 284 277 278 280 285 286 283 282 281 277 277 278 280 280 283 284 284 281 271 275 277 278 277 276 274 272 271 267 269 264 261 273 274 273 271 261 264 265 265
288 280 284 272 282 283 284 278 280 283 283 281 280 279 282 277 281 275 277 279 278 280 279 280 272 274 274 276 272 272 273 271 273 272 266 264 272 273 266 256 263 268 262 265 263
293 291 285 279 278 279 280 281 282 285 285 285 282 282 281 280 282 282 282 282 281 276 277 276 273 270 269 274 274 270 270 262 262 262 268 266 271 257 270 269 267 270 262 267 267
Wind_Speed
7 8 9 10 10 10 11 10 10 9 9 9 9 9 9 10 9 1 1 1 5 9 8 4 2 3 3 3 3 3 4 3 5 7 4 1 3 1 0 3 1 1 2 2 7
7 8 8 9 10 10 11 11 11 10 9 8 8 8 8 9 2 2 2 4 5 7 4 5 2 4 3 2 2 5 4 8 3 3 3 3 3 4 0 2 4 3 1 4 6
7 8 9 9 10 11 12 12 11 10 9 7 6 6 7 5 2 2 4 5 5 5 2 1 1 1 2 1 2 3 6 3 2 2 4 4 2 3 4 6 10 9 6 8 6
7 9 10 11 11 12 13 13 11 10 9 7 4 4 5 2 3 2 5 6 5 3 3 2 2 2 2 3 2 2 4 3 3 2 3 3 1 4 9 7 2 9 5 7 9
7 8 10 11 13 13 14 14 12 10 8 5 1 2 1 3 1 4 5 6 2 2 4 2 1 1 2 3 3 4 3 2 3 2 4 1 7 6 11 10 7 4 5 9 9
6 8 9 11 13 14 15 15 13 9 6 1 2 1 2 0 1 3 4 3 4 3 3 5 1 1 1 2 3 1 3 6 6 5 4 4 3 4 5 0 7 7 9 9 9
6 6 8 10 13 14 15 15 12 8 4 2 3 2 3 3 1 3 4 1 2 2 2 2 2 1 1 2 2 2 7 6 6 4 5 4 7 13 6 3 6 9 8 8 9
8 7 9 11 14 13 14 15 8 4 2 2 2 1 2 1 1 3 3 2 3 2 3 1 2 1 1 1 3 2 1 4 1 5 1 4 9 4 4 6 9 9 8 8 8
9 9 11 12 14 13 14 11 2 1 1 1 3 2 3 1 2 1 2 1 1 2 3 1 2 2 3 3 4 2 5 5 7 4 3 5 6 4 4 5 9 8 8 8 6
11 12 13 13 15 13 13 2 3 2 2 1 2 2 1 1 1 1 2 2 3 2 3 4 5 2 2 3 6 4 4 4 6 1 2 6 15 17 10 8 11 10 9 9 8
12 13 13 14 15 13 5 2 4 2 2 3 1 2 1 0 1 3 2 2 2 4 1 3 1 8 9 7 1 1 3 5 4 1 3 9 10 20 15 7 9 9 8 8 8
13 14 14 15 13 9 2 5 2 1 6 0 2 1 1 1 2 2 2 2 2 1 2 3 8 6 4 4 6 4 4 6 5 2 1 8 17 19 13 7 5 4 6 7 4
13 14 14 14 15 4 3 2 1 1 1 3 0 1 0 1 1 3 3 1 1 1 4 6 3 3 4 3 3 3 5 4 5 4 0 7 10 7 1 3 3 4 3 4 7
16 14 10 13 1 2 2 2 1 1 4 2 0 1 1 1 3 2 3 1 1 2 1 6 4 2 2 3 4 2 1 2 1 3 4 2 9 8 3 7 4 6 4 4 2
16 12 5 4 0 2 1 2 1 2 4 1 1 2 1 2 0 3 2 3 2 1 5 6 2 1 1 3 4 5 3 1 2 3 4 1 1 11 4 3 2 4 7 5 5
16 12 8 1 3 1 1 2 2 8 8 1 1 1 1 2 1 1 2 2 1 2 2 7 2 0 3 2 3 4 3 2 3 2 2 1 3 8 4 6 3 2 5 4 5
15 8 4 1 2 1 0 2 7 4 4 3 1 1 0 2 2 3 3 4 1 6 5 4 1 3 3 1 3 3 4 3 5 3 6 2 1 11 6 4 5 5 8 6 5
13 3 4 2 1 2 1 6 4 5 5 1 1 2 2 5 2 4 2 2 3 1 2 2 6 3 4 3 1 2 2 2 6 2 3 2 7 8 6 4 6 6 8 8 7
13 1 1 1 1 1 5 4 9 6 1 2 3 4 2 2 1 4 1 1 2 3 4 1 5 2 3 1 1 4 3 2 4 1 1 2 8 8 2 5 5 8 6 8 7
2 2 1 1 1 2 4 5 2 0 0 2 3 3 1 1 4 3 1 1 2 1 1 1 5 1 3 1 3 2 2 2 0 1 4 5 6 7 5 4 6 7 8 8 6
1 1 2 2 1 2 3 7 4 3 1 2 3 3 2 2 1 2 2 0 1 2 0 3 2 2 2 5 5 3 2 1 2 2 5 2 9 8 7 6 6 8 8 7 6
2 1 2 2 2 1 4 5 4 3 1 1 2 1 2 2 2 3 3 3 2 2 2 2 2 4 5 2 3 1 2 3 3 4 0 3 11 3 6 5 3 11 10 6 3
2 3 2 0 5 2 3 1 3 4 4 3 3 1 1 4 1 3 2 1 3 2 3 2 3 5 3 2 2 3 3 3 3 3 6 5 10 1 3 6 7 10 8 6 5
1 1 1 1 1 5 4 6 4 0 3 3 2 3 3 2 1 1 2 2 5 2 4 3 3 5 4 1 2 2 3 4 4 3 4 9 12 17 10 9 13 6 6 6 6
2 5 5 4 4 3 3 5 5 4 1 3 3 5 4 3 2 4 1 2 3 2 1 1 4 3 9 12 9 10 9 6 8 6 7 4 7 15 15 12 9 6 8 7 7
2 4 2 2 3 6 8 4 6 3 6 4 6 2 5 5 5 7 4 3 3 1 3 1 4 2 7 5 1 6 9 11 12 7 10 5 24 10 6 5 7 7 5 8 7
1 1 3 3 2 4 5 6 5 7 5 3 6 3 4 3 2 2 1 2 1 3 3 3 1 3 5 2 7 4 5 4 2 4 6 5 11 6 11 9 7 8 5 8 8
Wind_Direction
16 7 5 5 6 359 356 354 353 352 352 348 347 349 347 343 334 26 317 341 320 331 332 288 22 5 53 80 74 134 61 230 240 166 237 213 169 251 45 149 206 247 202 318 126
358 356 359 1 359 355 353 349 344 342 344 343 340 343 347 353 359 336 47 345 343 353 28 34 37 353 42 61 40 97 139 224 219 212 195 192 183 195 255 212 248 251 183 148 140
350 347 348 354 354 349 349 346 340 338 334 331 337 339 345 357 357 21 341 352 356 27 53 347 275 74 96 106 182 162 204 208 251 201 157 181 239 202 184 240 221 209 193 184 182
339 340 343 345 347 344 346 342 339 331 327 324 326 343 340 42 338 347 346 354 353 357 347 17 1 92 141 203 163 234 248 244 290 180 154 203 186 259 204 223 178 218 188 168 191
331 334 337 339 339 341 341 339 339 331 325 318 325 16 53 39 291 332 353 351 16 14 48 12 296 135 220 200 160 206 259 245 283 194 240 316 241 245 257 238 242 205 176 196 208
322 326 332 335 336 339 340 339 340 337 340 7 97 88 92 299 188 3 9 16 36 40 30 28 359 253 280 254 187 340 286 269 267 225 232 210 257 124 256 11 190 185 212 213 214
288 310 324 332 334 336 337 335 335 338 358 106 125 112 87 204 61 41 44 28 23 66 70 44 20 64 53 293 341 344 320 313 231 210 228 163 276 234 217 146 200 220 223 227 224
329 343 339 333 329 330 333 332 330 346 19 93 75 49 186 11 219 53 349 13 17 41 90 115 41 85 18 315 348 325 51 328 345 139 193 138 266 271 148 167 243 243 235 226 226
14 3 358 347 334 326 330 331 6 29 67 59 19 49 297 16 61 64 34 40 3 19 26 94 65 90 37 87 343 341 255 215 310 183 130 187 274 242 135 182 253 252 246 238 230
8 0 347 341 334 326 333 339 35 58 19 17 58 11 0 348 42 43 18 59 50 3 24 43 43 74 53 114 230 238 252 256 260 347 215 245 256 274 261 208 244 251 251 251 231
0 352 345 339 332 329 356 17 18 321 35 231 144 275 271 344 25 40 10 53 42 55 252 10 68 227 215 204 232 119 233 264 260 29 279 251 275 274 278 236 258 263 264 254 243
348 339 342 337 333 342 55 83 95 177 309 156 285 277 73 246 14 25 15 75 63 267 104 11 244 251 243 195 220 232 263 267 272 121 259 305 291 279 285 261 226 248 286 264 195
340 331 327 329 324 28 59 91 113 85 206 312 290 91 18 64 62 358 18 73 165 248 191 195 211 15 188 201 182 221 208 239 251 324 54 325 291 317 300 275 252 236 261 263 216
332 311 298 324 30 181 47 329 89 107 56 248 36 1 23 83 60 352 14 36 257 263 262 234 284 249 255 270 143 280 253 137 248 49 264 31 282 300 344 301 265 266 263 263 177
350 335 309 319 208 109 143 347 135 57 360 329 247 290 63 80 298 14 327 42 236 246 87 265 347 344 222 228 152 232 22 67 98 94 43 7 7 269 357 311 334 314 251 234 215
347 354 327 118 57 140 310 87 33 46 257 81 104 198 53 30 60 354 22 36 141 289 224 254 286 112 220 60 86 141 45 58 38 103 353 175 149 279 233 207 290 307 312 274 231
338 346 359 15 168 265 49 62 44 146 315 281 202 84 39 351 46 44 25 345 353 22 353 311 66 71 11 108 65 70 52 300 323 16 223 125 241 248 263 235 214 263 302 290 287
328 9 21 42 120 151 79 53 126 238 223 334 7 22 57 13 30 351 3 3 61 25 328 15 323 29 354 57 129 144 167 209 244 232 299 137 239 256 218 245 252 260 263 279 282
320 260 101 19 332 80 74 81 208 202 238 36 19 77 273 110 94 355 247 178 111 201 158 348 280 99 61 99 181 135 207 107 112 155 358 265 281 303 262 311 314 280 288 293 296
323 297 145 339 1 81 81 238 187 144 80 200 152 167 266 72 21 11 297 148 157 196 221 229 303 106 110 71 326 276 112 173 307 287 284 287 280 244 312 279 297 313 281 294 299
227 106 278 2 101 87 172 222 212 99 113 224 208 207 130 142 166 284 263 55 168 207 352 140 135 265 132 200 181 162 187 187 85 114 172 300 272 212 220 221 241 293 297 296 309
234 288 284 311 120 131 181 191 160 149 82 142 315 210 134 131 180 257 239 236 162 143 168 212 248 269 243 61 28 12 151 177 137 255 132 144 273 227 236 252 238 283 295 295 263
254 160 297 343 185 235 152 74 180 173 162 162 225 193 129 151 214 227 296 116 170 190 184 172 236 300 283 162 138 237 173 130 124 76 201 143 263 271 283 289 266 274 297 310 297
69 184 309 72 116 161 190 231 201 84 135 152 195 134 130 132 314 232 234 201 193 224 197 173 248 232 257 310 137 243 229 202 138 110 194 231 286 289 308 312 317 304 300 302 291
207 234 187 208 219 190 127 176 176 172 180 177 214 218 174 156 229 234 252 261 209 259 205 213 256 225 259 268 241 251 227 192 200 199 208 263 234 284 292 290 291 291 294 305 291
208 154 160 227 150 181 194 241 216 136 160 209 224 225 188 193 204 203 193 203 253 147 183 175 275 297 276 260 295 267 238 221 229 234 270 320 285 298 300 303 285 280 291 293 281
253 134 117 269 136 118 206 195 198 141 204 192 189 168 204 240 66 115 258 285 210 177 210 196 250 347 273 296 300 295 241 187 204 243 161 195 240 335 299 292 267 284 232 266 272